Regional Weather Roundup
Issued by NWS

Home | Current Version | Previous Version | Text Only | Print | Product List | Glossary On
Versions: 1 2 3 4 5 6 7 8 9 10 11 12 13 14 15 16 17 18 19 20 21 22 23 24 25 26 27 28 29 30 31 32 33 34 35 36 37 38 39 40 41 42 43 44 45 46 47 48 49 50
000
ASUS44 KFWD 190703
RWRTX
NORTH TEXAS HOURLY WEATHER ROUNDUP
NATIONAL WEATHER SERVICE FORT WORTH TX
200 AM CDT SAT APR 19 2014

NOTE: "FAIR" INDICATES FEW OR NO CLOUDS BELOW 12,000 FEET WITH NO
SIGNIFICANT WEATHER AND/OR OBSTRUCTIONS TO VISIBILITY.

TXZ118-119-190800-
DALLAS/FORT WORTH METROPLEX

CITY           SKY/WX    TMP DP  RH WIND       PRES   REMARKS
DFW AIRPORT    MOCLDY    60  46  59 S5        30.13S
DALLAS LOVE    MOCLDY    62  45  53 SE5       30.14S
FTW MEACHAM    PTCLDY    60  50  69 CALM      30.14R
DAL-EXECUTIVE  PTCLDY    57  46  66 CALM      30.14S
FTW-ALLIANCE   MOCLDY    57  46  66 S5        30.14S
FTW-NAS-JRB    PTCLDY    63  46  54 S3        30.19R
FTW-SPINKS     CLEAR     55  47  75 CALM      30.16S
ARLINGTON      CLEAR     51  48  89 CALM      30.14S
GRAND PRAIRIE  PTCLDY    61  45  55 SE5       30.17R
ADDISON        PTCLDY    63  46  53 SE6       30.16S
MESQUITE       PTCLDY    58  46  64 E5        30.15S
LANCASTER      PTCLDY    58  45  61 CALM      30.15S
$$

TXZ091>094-102>105-117-120-121-131>134-190800-
NORTH CENTRAL TEXAS

CITY           SKY/WX    TMP DP  RH WIND       PRES   REMARKS
SHRMAN/DENISON PTCLDY    61  43  51 SE7       30.16S
GAINESVILLE    PTCLDY    54  46  73 CALM      30.17R
BOWIE          MOCLDY    55  47  76 CALM      30.16R
BRIDGEPORT     PTCLDY    54  48  80 CALM      30.17S
DECATUR        PTCLDY    58  47  65 SE5       30.15S
DENTON         PTCLDY    56  48  74 CALM      30.14S
MCKINNEY       PTCLDY    57  46  66 SE3       30.15R
GREENVILLE     PTCLDY    55  50  82 SE5       30.15F
ROCKWALL       PTCLDY    59  49  69 E7        30.14S
TERRELL        MOCLDY    59  50  72 E5        30.15F
WAXAHACHIE     CLEAR     53  44  70 CALM      30.16R
CLEBURNE       CLEAR     55  52  88 CALM      30.17S
GRANBURY       PTCLDY    55  50  85 CALM      30.16F
$$

TXZ083>090-098>101-113>116-127>130-139>142-154-155-190800-
WESTERN NORTH TEXAS

CITY           SKY/WX    TMP DP  RH WIND       PRES   REMARKS
WICHITA FALLS  CLOUDY    54  49  83 SE7       30.13S
WF-KICKAPOO    MOCLDY    56  50  81 SE6       30.14F
VERNON         MOCLDY    57  50  79 S6        30.13S
ABILENE        MOCLDY    59  48  67 SE12      30.13F
BRECKENRIDGE   PTCLDY    60  48  65 SE7       30.14S
GRAHAM         MOCLDY    58  49  73 SE5       30.13S
MINERAL WELLS  PTCLDY    56  50  80 SE8       30.13F
STEPHENVILLE   PTCLDY    58  49  72 CALM      30.17F
COMANCHE       CLEAR     57  50  77 S5        30.15F
BROWNWOOD      MOCLDY    55  50  82 CALM      30.16S
BRADY          PTCLDY    57  52  82 E6        30.14F
$$

TXZ143>147-156>162-174-175-190800-
CENTRAL TEXAS

CITY           SKY/WX    TMP DP  RH WIND       PRES   REMARKS
WACO           PTCLDY    51  50  96 VRB5      30.14S
WACO-MCGREGOR  PTCLDY    52  45  76 CALM      30.16S
HILLSBORO      CLEAR     59  46  63 E8        30.15S
CORSICANA      CLEAR     59  51  75 SE6       30.15S
MEXIA          CLEAR     58  50  74 CALM      30.13F
HEARNE         PTCLDY    55  52  90 CALM      30.14S
CAMERON        PTCLDY    58  53  83 CALM      30.14S
TEMPLE         PTCLDY    57  46  67 E3        30.16F
KILLEEN        PTCLDY    59  52  77 SE6       30.13F
KILLEEN-SKYLRK PTCLDY    55  48  76 CALM      30.13S
HAMILTON       PTCLDY    56  50  79 S6        30.16S
LAMPASAS       PTCLDY    58  53  84 CALM      30.14F
$$

TXZ095>097-106>112-122>126-135>138-148>153-164>167-190800-
EAST TEXAS

CITY           SKY/WX    TMP DP  RH WIND       PRES   REMARKS
PARIS          MOCLDY    54  45  71 E8        30.17F
SULPHUR SPRNGS PTCLDY    58  50  74 SE5       30.17F
CLARKSVILLE    PTCLDY    53  48  81 CALM      30.16F
MOUNT PLEASANT MOCLDY    53  51  94 CALM      30.17F
MINEOLA        PTCLDY    54  52  94 CALM      30.16F
TYLER          PTCLDY    60  51  72 E7        30.14F
LONGVIEW       MOCLDY    54  51  90 CALM      30.15F
ATHENS         MOCLDY    54  50  87 CALM      30.14S
PALESTINE      PTCLDY    63  52  68 E6        30.16F HAZE
JACKSONVILLE   PTCLDY    59  51  74 E3        30.17F
HENDERSON      PTCLDY    53  51  92 CALM      30.16F
NACOGDOCHES    PTCLDY    52  48  87 CALM      30.16F
LUFKIN         CLEAR     57  53  86 CALM      30.14F
$$

SUPPLEMENTAL OBSERVATIONS (CENTRAL)

CITY           SKY/WX    TMP DP  RH WIND       PRES   REMARKS
$$

SUPPLEMENTAL OBSERVATIONS (WEST)

CITY           SKY/WX    TMP DP  RH WIND       PRES   REMARKS
$$

SUPPLEMENTAL OBSERVATIONS (EAST)

CITY           SKY/WX    TMP DP  RH WIND       PRES   REMARKS
$$

SUPPLEMENTAL OBSERVATIONS ARE A COLLECTION OF AUTOMATED INSTRUMENTS
THAT ARE MAINTAINED BY A VARIETY OF FEDERAL AND STATE AGENCIES.
CERTAIN ELEMENTS...SUCH AS HUMIDITY VALUES AND SUSTAINED WIND
SPEEDS...MAY BE APPROXIMATED.




USA.gov is the U.S. government's official web portal to all federal, state and local government web resources and services.